Probability
2 2 3 3 3 5 6 6 6 8 8 8 8 8 7 8 9 10 11 13 15 14 12 12 11 11 10 9 8 7 6 5 4 4 5 5 5 6 6 5 5 5 4
4 4 3 3 3 4 4 5 5 6 8 8 8 7 8 8 9 9 10 13 15 15 15 15 13 12 11 10 8 8 7 6 6 6 7 7 7 6 6 6 6 6 5
6 7 6 5 5 5 5 5 4 4 5 6 5 6 8 9 8 9 11 12 14 16 18 18 17 15 12 11 9 8 7 6 7 8 9 9 8 7 7 6 6 6 6
7 8 9 9 8 8 7 6 5 4 4 3 3 4 7 8 8 8 9 11 13 14 17 19 20 18 15 13 12 11 10 9 9 11 11 10 9 9 7 7 6 6 6
7 8 10 10 9 8 8 7 6 7 7 5 3 3 5 6 6 7 7 9 11 12 14 17 19 18 17 17 16 16 15 14 14 14 13 11 9 9 8 7 7 7 7
7 7 9 10 8 8 9 8 8 9 9 8 6 5 4 5 6 7 7 8 8 10 12 14 16 17 17 18 18 18 18 17 16 16 14 12 9 8 9 8 7 7 7
6 6 8 8 8 8 10 9 9 9 9 9 8 6 5 5 7 8 8 8 7 9 10 13 15 17 17 16 16 17 16 15 15 15 14 13 11 10 10 9 7 7 8
8 8 9 9 9 10 11 11 10 10 9 8 7 7 6 7 6 7 8 9 10 11 12 12 14 16 17 16 15 15 15 15 15 15 15 15 14 13 12 9 7 7 7
13 14 12 11 11 11 11 12 11 10 9 9 7 7 7 7 7 7 7 9 12 13 12 11 13 14 15 16 15 14 16 16 16 15 15 16 15 14 12 10 8 8 7
17 17 16 14 12 9 9 10 10 10 10 9 9 8 8 8 9 8 8 9 11 11 11 11 12 14 14 16 16 16 17 17 16 15 14 14 14 13 11 10 9 9 8
18 17 17 17 13 10 9 9 10 10 10 10 10 10 10 11 11 11 10 10 10 10 10 10 11 13 15 16 19 20 19 17 14 13 13 11 11 11 10 9 9 8 8
17 17 16 17 15 12 12 12 11 10 10 10 10 11 14 14 14 14 13 12 11 11 11 10 11 12 14 17 19 20 18 14 11 10 9 8 7 8 8 8 7 6 6
15 16 16 17 16 13 13 13 12 11 10 10 10 11 15 17 16 16 16 14 12 12 12 12 13 15 17 18 18 17 15 11 8 6 6 6 5 5 6 6 5 4 4
12 15 18 18 17 14 13 14 13 11 11 11 11 12 15 17 15 15 15 14 13 12 12 13 16 18 20 20 17 14 13 11 7 6 6 4 3 3 4 4 3 3 3
11 14 17 19 19 18 16 14 13 12 13 13 12 13 15 16 14 12 12 13 14 13 12 13 15 19 21 19 15 14 14 11 8 6 5 3 2 2 2 1 1 2 2
16 17 18 19 20 20 18 15 11 11 13 14 13 13 15 17 15 14 14 15 16 16 15 14 15 19 21 18 17 17 16 12 9 7 5 2 0 0 0 0 0 1 1
22 21 20 19 19 19 18 14 11 9 11 13 13 13 16 18 18 18 18 18 20 20 20 19 19 22 23 23 23 22 19 14 11 9 6 2 0 0 0 0 0 0 0
26 25 21 19 19 19 18 17 13 9 10 13 14 15 17 18 19 19 19 19 20 21 22 22 23 24 25 26 26 23 19 16 12 9 7 4 1 1 0 0 0 0 0
29 27 23 21 21 21 20 19 14 10 10 12 14 15 16 17 17 17 16 17 18 20 22 23 23 22 23 24 24 22 18 16 14 11 9 7 4 2 1 0 0 0 0
32 30 28 25 23 20 19 18 14 11 9 11 13 14 15 15 14 13 13 14 16 19 23 24 20 17 18 21 24 23 19 18 17 14 12 11 9 6 3 1 0 0 0
31 33 32 29 24 18 14 13 13 12 11 11 13 14 15 13 12 10 10 11 14 19 24 24 18 14 14 18 22 23 21 20 19 18 16 15 13 10 6 3 1 0 0
32 34 35 33 26 18 12 8 10 13 15 14 14 15 14 11 9 8 7 8 10 14 19 20 17 14 14 15 18 20 21 21 20 19 18 17 16 14 9 5 1 0 0
37 37 37 35 30 22 12 6 7 12 15 17 16 15 13 10 8 8 8 8 9 10 12 14 16 16 16 17 17 19 21 21 20 18 17 16 16 14 11 7 3 0 0
42 43 42 40 35 26 14 7 7 10 15 18 17 15 13 11 10 10 11 12 13 12 11 12 15 16 16 17 18 20 21 21 18 17 15 13 13 12 11 8 4 1 0
44 46 45 43 38 28 16 9 8 12 17 19 18 15 13 12 12 12 15 18 18 16 15 14 14 13 12 12 15 19 21 19 17 16 15 13 10 9 9 8 4 1 0
46 47 45 42 38 29 18 10 8 13 19 19 18 14 11 11 11 12 17 20 20 18 17 18 14 11 9 8 10 16 19 18 17 17 16 13 10 8 8 7 4 1 0
Wind_Speed
3 3 2 2 2 2 2 2 2 2 2 1 1 2 2 2 2 4 4 9 10 8 7 7 6 6 6 5 5 5 5 5 5 6 7 7 7 8 7 7 8 8 8
3 2 2 2 2 2 2 2 2 2 1 1 1 2 1 1 2 4 4 6 9 8 7 7 6 6 6 6 5 5 5 5 4 4 5 6 6 7 7 7 8 8 8
3 2 2 2 2 1 2 1 1 1 1 1 1 1 0 0 1 3 4 4 5 7 8 8 7 7 6 6 6 6 6 6 4 4 4 4 5 6 7 7 7 8 8
2 1 2 2 1 1 1 1 1 1 1 1 1 0 1 1 0 1 2 4 3 4 7 9 8 7 7 6 6 5 5 5 4 4 4 4 4 5 6 6 6 6 7
2 2 1 1 0 1 1 1 2 1 1 1 0 1 1 1 1 1 2 3 4 4 4 7 9 8 8 7 6 6 6 5 5 4 4 4 4 4 5 5 5 5 5
2 2 0 1 1 1 1 1 1 1 0 0 1 1 0 1 1 1 1 2 3 4 4 4 5 5 7 6 6 6 6 6 5 5 5 5 4 4 5 5 6 6 5
1 1 1 1 1 1 1 1 1 1 0 1 0 1 1 1 1 1 1 1 1 2 3 4 4 3 4 7 6 6 6 6 5 5 5 6 6 6 6 6 6 5 5
1 2 1 0 1 1 1 0 1 1 1 0 0 1 0 1 1 1 2 2 1 1 1 3 3 3 3 3 4 7 6 6 5 6 5 5 6 6 6 6 6 6 6
1 1 1 1 1 0 0 1 1 1 2 2 1 1 0 0 1 1 1 1 1 1 1 1 2 1 2 2 3 6 7 6 5 5 5 5 5 5 6 6 6 6 6
2 1 1 1 1 1 1 1 1 2 2 2 1 1 0 0 0 1 1 0 1 1 1 1 2 2 2 2 3 6 7 5 4 4 4 4 4 4 4 5 6 6 6
2 1 1 1 0 1 1 2 2 2 2 2 2 1 1 1 1 1 1 1 1 1 1 1 1 2 2 3 3 5 7 6 4 4 3 4 4 4 4 5 5 6 6
1 2 2 1 0 0 1 1 1 2 2 2 2 2 1 1 1 1 1 1 1 1 1 1 1 1 2 2 4 6 6 6 4 4 3 4 4 4 4 4 5 6 6
1 1 1 1 1 1 1 1 1 1 2 2 3 2 2 2 2 1 1 1 1 1 1 1 2 1 1 2 3 6 6 5 5 4 4 4 3 4 4 4 5 5 5
1 2 1 1 0 1 1 1 1 1 1 2 2 2 2 2 2 1 1 1 2 2 1 1 1 1 1 2 4 5 4 5 5 4 3 3 3 3 3 4 4 4 4
1 2 1 1 0 0 1 1 1 1 1 2 2 2 2 2 2 2 2 1 1 2 2 1 1 1 1 2 5 3 2 5 5 4 3 3 3 4 4 4 4 4 4
1 1 0 0 1 1 1 1 1 1 1 2 2 2 2 2 3 3 2 2 1 1 2 1 1 1 0 1 3 2 2 4 4 4 4 3 4 4 4 4 4 4 4
1 0 1 1 1 1 0 1 2 1 2 2 2 2 2 2 3 3 3 2 2 1 2 2 1 1 1 0 1 2 2 3 3 5 4 4 4 4 3 3 3 4 3
2 1 1 1 1 1 1 1 2 2 2 2 2 2 3 3 3 3 3 3 2 2 2 2 2 2 2 2 2 3 2 2 2 5 5 4 3 3 3 3 3 3 3
2 2 1 2 2 1 1 1 2 2 2 2 2 2 2 3 3 3 3 3 3 3 1 2 3 2 1 2 1 2 2 1 3 4 5 4 4 4 4 4 4 4 4
2 2 2 2 2 1 1 1 1 2 2 2 2 2 2 2 3 4 3 3 3 3 2 2 3 2 2 2 1 2 2 1 2 2 2 4 5 5 5 4 4 4 4
3 2 2 2 2 1 2 1 2 2 2 2 2 2 2 2 3 3 4 3 3 3 3 3 3 2 1 2 2 2 2 2 2 1 1 2 2 2 2 3 4 4 4
2 2 2 2 2 3 2 2 2 3 2 2 2 2 2 1 2 2 4 4 4 4 4 3 3 2 2 2 2 2 2 2 2 1 1 1 1 2 2 2 3 4 5
2 3 2 2 2 1 2 2 2 3 3 2 2 2 3 2 2 2 3 4 4 5 4 3 3 3 3 2 2 3 2 2 3 2 1 2 1 2 2 2 5 6 6
2 3 3 3 2 2 2 3 3 4 3 2 2 2 1 1 3 3 3 3 2 3 4 3 2 3 3 2 2 3 4 3 3 2 1 3 2 1 1 1 6 7 6
3 2 2 2 2 2 3 3 3 3 3 3 3 3 2 2 3 3 3 3 3 3 3 2 3 3 3 3 3 2 3 3 3 2 1 2 2 2 1 1 3 6 6
2 3 2 2 2 2 3 3 3 3 3 3 3 3 4 3 3 2 3 3 4 4 3 2 2 3 3 3 3 2 3 3 3 2 1 1 2 1 1 1 2 3 3
Wind_Direction
66 65 62 60 63 74 99 90 91 92 86 88 95 110 129 136 119 119 136 151 154 161 168 175 181 187 188 188 189 195 205 212 216 216 218 221 228 233 231 232 231 228 229
74 72 69 49 57 61 75 84 90 108 117 107 99 86 84 124 133 139 143 156 163 166 173 179 183 189 189 192 198 204 210 215 213 213 216 219 225 229 232 232 232 232 230
94 100 88 61 47 48 69 79 66 63 108 107 102 115 140 146 149 148 153 156 166 175 178 180 182 186 189 197 203 206 204 210 212 215 220 229 233 234 232 232 232 233 229
72 68 97 94 64 38 68 73 63 35 58 64 71 69 100 102 122 171 162 161 164 174 184 187 187 189 192 199 203 204 199 202 208 220 229 233 242 235 230 234 233 231 229
74 61 68 77 48 53 43 46 61 29 40 72 100 177 181 174 185 212 174 164 169 172 168 184 193 195 200 203 204 205 201 200 206 213 219 231 239 229 221 228 231 231 227
81 87 85 68 48 52 47 45 50 1 345 212 333 31 244 199 192 191 184 187 172 172 171 167 185 199 199 199 199 203 203 203 204 211 220 231 236 230 226 230 232 231 223
78 96 42 71 96 65 53 16 14 292 235 178 61 304 271 243 192 181 187 192 162 155 154 162 168 177 185 201 203 203 206 208 208 213 223 231 233 231 228 231 229 226 223
166 131 124 18 97 126 87 284 317 314 297 266 274 282 290 338 306 212 174 181 176 177 160 171 159 171 178 164 192 201 206 209 214 218 225 235 240 235 229 227 224 226 228
123 65 59 37 359 65 358 302 336 299 292 290 277 279 277 284 312 310 265 162 159 175 189 147 136 151 182 157 167 188 197 204 214 222 228 236 242 234 235 232 228 231 233
146 141 132 78 353 30 2 301 34 309 284 290 281 243 206 168 258 315 303 314 189 193 201 193 161 159 165 152 147 154 174 185 202 220 234 239 246 242 240 237 236 238 238
159 151 136 139 2 20 2 16 7 336 336 340 327 313 295 235 237 222 272 284 276 226 194 187 173 159 172 157 152 147 160 171 186 207 226 240 250 252 245 242 244 249 250
156 138 142 131 68 23 359 5 332 349 355 342 327 322 316 306 290 262 255 261 259 243 200 193 214 180 171 147 150 143 154 167 180 195 216 234 245 257 258 253 248 252 255
137 123 118 111 55 20 320 337 325 351 2 341 325 324 325 312 307 317 277 287 292 264 207 220 204 178 151 127 128 139 155 166 178 195 213 228 242 251 253 251 253 256 255
98 119 116 113 92 326 331 326 313 322 341 315 315 332 320 312 308 311 284 286 298 298 269 246 214 166 150 136 146 162 164 170 182 199 212 222 239 250 251 248 253 259 258
119 106 120 153 191 217 319 324 318 320 320 308 312 330 318 302 304 308 300 297 269 294 297 282 297 190 174 137 155 174 156 173 189 198 215 228 241 245 247 248 250 253 258
19 101 119 254 268 244 233 259 278 270 291 309 309 324 320 320 325 312 312 305 279 260 282 285 280 267 239 147 161 172 162 170 186 202 213 215 228 233 234 237 238 247 253
274 234 250 268 259 254 277 286 292 302 294 299 307 317 315 315 319 317 317 311 307 298 280 298 310 314 327 320 174 210 196 184 189 205 196 201 215 223 227 232 237 243 247
234 226 242 273 271 258 245 263 277 291 294 296 304 312 314 321 323 314 315 312 311 308 286 283 288 271 251 233 216 228 236 210 193 189 193 197 200 210 207 216 224 228 233
233 237 230 241 255 265 261 269 271 280 285 296 301 295 308 317 315 315 309 305 304 305 302 290 285 279 265 252 250 259 256 252 227 184 182 184 196 198 205 213 220 222 223
224 232 240 242 238 238 265 277 289 275 288 304 304 303 307 305 309 307 300 301 303 298 286 281 279 270 273 274 259 255 267 270 270 236 182 185 195 205 213 214 218 217 213
230 230 234 248 243 220 252 255 268 259 265 278 284 288 303 336 342 326 313 318 313 302 293 280 277 284 298 315 296 281 274 263 266 268 209 197 193 201 210 215 210 207 202
239 242 240 236 247 257 254 234 248 268 254 254 258 262 253 264 294 297 303 311 307 297 297 294 294 294 297 301 301 301 301 301 293 293 297 272 198 207 209 198 197 195 200
250 253 248 230 237 256 261 261 271 260 265 264 253 262 276 289 282 290 285 277 287 294 281 273 286 287 292 304 308 302 306 299 282 280 293 282 263 250 223 195 180 185 190
243 246 250 247 243 253 251 245 265 248 260 254 245 247 261 287 302 313 300 301 300 309 289 263 262 275 283 289 273 272 271 270 266 276 284 276 272 264 253 187 185 184 188
250 247 251 243 237 246 247 239 236 246 249 246 236 246 250 246 285 307 296 298 299 293 292 269 255 274 285 295 302 297 291 284 275 266 269 273 273 272 248 205 196 195 195
243 247 250 251 240 232 231 219 218 250 258 254 243 234 242 246 268 281 276 283 288 293 298 297 282 269 260 264 274 269 279 280 282 279 257 268 271 286 274 227 192 192 202